Regional Weather Roundup
Issued by NWS

Home | Current Version | Previous Version | Graphics & Text | Print | Product List | Glossary Off
Versions: 1 2 3 4 5 6 7 8 9 10 11 12 13 14 15 16 17 18 19 20 21 22 23 24 25 26 27 28 29 30 31 32 33 34 35 36 37 38

000
ASUS43 KMKX 230600
RWRWI

WISCONSIN REGIONAL WEATHER ROUNDUP
NATIONAL WEATHER SERVICE MILWAUKEE/SULLIVAN WI
100 AM CDT TUE AUG 23 2016

NOTE: "FAIR" INDICATES FEW OR NO CLOUDS BELOW 12,000 FEET WITH NO
SIGNIFICANT WEATHER AND/OR OBSTRUCTIONS TO VISIBILITY.

WIZ001-002-006>008-014>016-023>028-230700-
NORTHWEST WISCONSIN

CITY           SKY/WX    TMP DP  RH WIND       PRES   REMARKS
SUPERIOR ARPT  CLEAR     69  61  74 SW8       29.88S
ASHLAND        CLEAR     69  61  75 SW8       29.93R
6HR MIN TEMP:  69; 6HR MAX TEMP:  77;

HAYWARD        CLEAR     68  59  73 S10       29.97R
6HR MIN TEMP:  67; 6HR MAX TEMP:  75;

SIREN          CLEAR     70  59  68 S10G17    29.94R
CUMBERLAND     CLEAR     64  57  77 S8        29.98R
RICE LAKE      CLEAR     67  59  74 S8        30.00R
CHETEK         NOT AVBL
LADYSMITH      CLEAR     65  61  85 S7        30.03R
EAU CLAIRE     NOT AVBL
MENOMONIE      CLEAR     70  60  71 S12G18    30.00R
6HR MIN TEMP:  69; 6HR MAX TEMP:  78;

NEW RICHMOND   CLEAR     69  58  69 S9        29.97R
OSCEOLA        CLEAR     70  60  72 S10       29.98R
$$

WIZ003>005-009-010-017-018-230700-
NORTH CENTRAL WISCONSIN

CITY           SKY/WX    TMP DP  RH WIND       PRES   REMARKS
MANITOWISH WTR NOT AVBL
ARBOR VITAE    CLEAR     64  60  87 S7        30.03R
WOODRUFF       CLEAR     64  60  87 S7        30.03R
RHINELANDER    CLEAR     66  62  87 SW10G20   30.05R
6HR MIN TEMP:  65; 6HR MAX TEMP:  70; 6HR PCP: TRACE;

EAGLE RIVER    CLEAR     65  58  78 S3        30.04R
LAND O LAKES   CLEAR     62  60  96 S6        30.04S
PHILLIPS       CLEAR     65  61  87 SW8       30.02R
6HR MIN TEMP:  65; 6HR MAX TEMP:  71;

TOMAHAWK       PTCLDY    63  58  86 CALM      30.04S
MEDFORD        PTCLDY    64  63  97 S9        30.05R
MERRILL        PTCLDY    66  61  85 SW6       30.05S
$$

WIZ029-030-035-036-043>047-230700-
CENTRAL WISCONSIN

CITY           SKY/WX    TMP DP  RH WIND       PRES   REMARKS
WAUSAU         PTCLDY    67  60  78 SW10      30.04S
6HR MIN TEMP:  67; 6HR MAX TEMP:  73;

MOSINEE        CLEAR     63  61  94 S10       30.07S
MARSHFIELD     CLEAR     65  59  81 S9        30.05S
6HR MIN TEMP:  65; 6HR MAX TEMP:  74;

STEVENS POINT  CLEAR     63  58  84 S9        30.08R
WAUPACA        CLEAR     65  60  85 S3        30.09R
WAUTOMA        CLEAR     65  59  81 S6        30.09S
6HR MIN TEMP:  64; 6HR MAX TEMP:  74;

WISC RAPIDS    CLEAR     66  61  84 S6        30.08R
6HR MIN TEMP:  65; 6HR MAX TEMP:  74;

CAMP DOUGLAS   NOT AVBL
$$

WIZ011>013-019>022-031-037>040-048>050-230700-
NORTHEAST WISCONSIN

CITY           SKY/WX    TMP DP  RH WIND       PRES   REMARKS
ANTIGO         CLEAR     63  59  86 SW8       30.07R
SHAWANO        CLEAR     67  58  73 S5        30.07S
OCONTO         NOT AVBL
STURGEON BAY   CLOUDY    66  60  81 SE8       30.13R
6HR MIN TEMP:  66; 6HR MAX TEMP:  70;

GREEN BAY      CLEAR     63  60  90 S5        30.09R
6HR MIN TEMP:  62; 6HR MAX TEMP:  73;

MANITOWOC      NOT AVBL
APPLETON       CLEAR     64  54  68 S12       30.08R
CLINTONVILLE   CLEAR     64  55  72 SW8       30.07S
OSHKOSH        CLEAR     64  57  78 S12       30.10R
6HR MIN TEMP:  64; 6HR MAX TEMP:  73;

$$

WIZ032>034-041-042-053>061-230700-
SOUTHWEST WISCONSIN

CITY           SKY/WX    TMP DP  RH WIND       PRES   REMARKS
LA CROSSE      CLEAR     71  67  87 S9        30.05R
6HR MIN TEMP:  71; 6HR MAX TEMP:  79;

SPARTA         CLEAR     67  61  80 S7        30.07S
VIROQUA        CLEAR     65  60  85 S7        30.10R
6HR MIN TEMP:  64; 6HR MAX TEMP:  74;

BOSCOBEL       CLEAR     66  60  81 CALM      30.10R
6HR MIN TEMP:  66; 6HR MAX TEMP:  77;

PRAIRIE DU CHI CLEAR     68  58  71 E3        30.08S
PLATTEVILLE    CLEAR     64  62  93 S8        30.13S
$$

WIZ056-057-062-063-064-067-068-230700-
SOUTH CENTRAL WISCONSIN

CITY           SKY/WX    TMP DP  RH WIND       PRES   REMARKS
REEDSBURG      NOT AVBL
BARABOO/DELLS  CLEAR     65  57  74 SW10      30.10R
LONE ROCK      NOT AVBL
MINERAL POINT  CLEAR     63  61  94 S6        30.13R
MADISON        CLEAR     67  57  70 S8        30.13R
6HR MIN TEMP:  67; 6HR MAX TEMP:  74;

MIDDLETON      CLEAR     66  58  75 SW7       30.13S
WATERTOWN      CLEAR     62  57  85 S5        30.13S
MONROE         CLEAR     61  55  82 S7        30.14S
JANESVILLE     CLEAR     63  55  77 S3        30.15R
$$

WIZ051-052-058>065-066-070>072-230700-
SOUTHEAST WISCONSIN

CITY           SKY/WX    TMP DP  RH WIND       PRES   REMARKS
MILWAUKEE      CLEAR     67  56  67 S7        30.15S
6HR MIN TEMP:  67; 6HR MAX TEMP:  75;

WAUKESHA       CLEAR     61  54  77 CALM      30.16S
MILWAUKEE/TIMM CLEAR     64  52  63 S7        30.15S
RACINE         CLEAR     66  56  70 MISG      30.18R
6HR MIN TEMP:  66; 6HR MAX TEMP:  74;

BURLINGTON     CLEAR     55  54  97 CALM      30.16S
KENOSHA        CLEAR     63  56  78 S6        30.17S
6HR MIN TEMP:  63; 6HR MAX TEMP:  75;

FOND DU LAC    CLEAR     68  56  65 S13       30.11S
6HR MIN TEMP:  64; 6HR MAX TEMP:  73;

SHEBOYGAN      CLEAR     61  55  81 S7        30.13R
6HR MIN TEMP:  61; 6HR MAX TEMP:  71;

WEST BEND      CLEAR     61  55  82 SW3       30.14S
JUNEAU         CLEAR     63  56  80 S9        30.14S
$$

LSZ147-162-230700-
LAKE SUPERIOR

STATION/POSITION TIME  TEMP    WIND        PRES    WAVE
                       AIR SEA DIR/SP/G            HT/PER
                 (UTC) (F)     (DEG/KT/KT) (MB)    (FT/S)
W MID LAKE BUOY  0450   69 66  180/ 14/ 16 1011.5R   2/ 4
DEVILS ISLAND    0500   72     180/ 10/ 14 1011.9S
PORT WING        0400   74     190/ 10/ 16 1012.2
SAXON HARBOR     0500   73     200/ 13/ 22 1012.9R
$$

LMZ867-665-643>646-230700-
LAKE MICHIGAN

STATION/POSITION TIME  TEMP    WIND        PRES    WAVE
                       AIR SEA DIR/SP/G            HT/PER
                 (UTC) (F)     (DEG/KT/KT) (MB)    (FT/S)
CHAMBERS ISLAND  0540   68     130/  4/ 10 1019.6R
S GREEN BAY BUOY 0500   70 74  170/ 12/ 16 1018.2
N MID LAKE BUOY  0450   70 71  210/ 14/ 17 1019.6R   6/ 6
NORTHPORT PIER   0520   68     160/  6/  9 1019.3F
SISTER BAY       0437   67     150/  7/ 10   N/A
KEWAUNEE LAKESHO 0500   65     180/  7/  8 1018.8R
SHEBOYGAN LAKESH 0500   68     200/ 14/ 16 1020.1R
PORT WASHINGTON  0540   64     220/  4/  7 1021.0R
ATWATER BUOY     0500   67 62  180/  8/ 12   N/A
MILWAUKEE LAKESH 0510   69     200/ 10/ 11   N/A
S MID LAKE BUOY  0450   74 74  200/ 17/ 21 1020.7R   3/ 4
KENOSHA   LAKESH 0500   69     210/  6/ 10 1021.0R
$$

TC  - TEMPERATURE IN CELSIUS
VSB - VISIBILITY IN STATUTE MILES
WCI - WIND CHILL INDEX
HX  - HEAT INDEX





USA.gov is the U.S. government's official web portal to all federal, state and local government web resources and services.